Retour au catalogue

STSAT 3

ActifScienceSSO
NORAD 39422·PAYLOAD·🇰🇷 South Korea

Lancé Nov 21, 2013 depuis Dombarovsky

Loading…

Prochains Passages (prochaines 24 heures)

TLE

FraisSource: Space-Track

Époque: Sep 14, 2026, 14:11 UTC

1 39422U 13066G   26257.59162161  .00002517  00000-0  19045-3 0  9996
2 39422  97.6322 226.0971 0010898  91.0524 269.1950 15.03179563697638

Suivez STSAT 3 en temps réel avec AllMySat

Download on the App Store